1487170800.83,39049,15.25,74888.3,3.15,-30.11,-30.11,0,*7D
1487170802.05,39050,15.25,74888.8,3.15,-30.33,-30.33,0,*75
1487170803.31,39051,15.25,74898.0,3.13,-30.17,-30.17,0,*72
1487170804.53,39052,15.25,74896.3,3.13,-30.17,-30.27,0,*72
1487170805.76,39053,15.25,74892.0,3.15,-29.95,-29.83,0,*71
1487170807.01,39054,15.25,74890.5,3.15,-29.95,-30.01,0,*74
1487170808.23,39055,15.25,74894.3,3.15,-29.95,-29.95,0,*70
1487170809.48,39056,15.25,74898.0,3.15,-29.95,-30.01,0,*76
1487170810.7,39057,15.25,74894.0,3.13,-30.01,-30.11,0,*75
1487170811.92,39058,15.25,74892.3,3.15,-30.45,-30.45,0,*7D
1487170813.11,39059,15.25,74894.0,3.13,-30.11,-30.11,0,*7A
1487170814.32,39060,15.25,74894.0,3.13,-29.79,-29.83,0,*75
1487170815.54,39061,15.25,74890.0,3.15,-29.83,-29.95,0,*70
1487170816.76,39062,15.25,74888.0,3.15,-29.95,-29.95,0,*74
1487170817.99,39063,15.25,74892.5,3.15,-29.83,-29.95,0,*72
1487170819.21,39064,15.25,74890.3,3.15,-29.83,-29.95,0,*75
1487170820.41,39065,15.25,74886.5,3.13,-30.11,-30.11,0,*75
1487170821.6,39066,15.25,74890.5,3.13,-30.11,-30.11,0,*76
1487170822.83,39067,15.25,74890.8,3.15,-30.27,-30.27,0,*71
1487170824.08,39068,15.25,74888.8,3.13,-30.51,-30.61,0,*7B
1487170825.31,39069,15.25,74898.3,3.15,-30.27,-30.33,0,*7A
1487170826.55,39070,15.25,74894.3,3.15,-30.17,-30.27,0,*74
1487170827.76,39071,15.25,74898.0,3.13,-30.27,-30.33,0,*75
1487170828.99,39072,15.25,74898.8,3.13,-30.33,-30.17,0,*75
1487170830.18,39073,15.25,74892.5,3.13,-30.45,-30.45,0,*72
1487170831.38,39074,15.25,74886.0,3.13,-30.33,-30.27,0,*70
1487170832.63,39075,15.25,74892.0,3.13,-30.51,-30.61,0,*77
1487170833.84,39076,15.25,74890.8,3.13,-30.27,-30.33,0,*72
1487170835.07,39077,15.25,74896.0,3.13,-30.11,-30.17,0,*70
1487170836.32,39078,15.25,74892.0,3.13,-30.01,-30.17,0,*7E
1487170837.59,39079,15.25,74894.3,3.11,-30.51,-30.39,0,*74
1487170838.84,39080,15.25,74894.5,3.13,-30.17,-30.17,0,*7E
1487170840.1,39081,15.25,74892.0,3.13,-30.17,-30.17,0,*7F
1487170841.3,39082,15.25,74892.8,3.13,-30.33,-30.33,0,*7C
1487170842.5,39083,15.25,74892.3,3.13,-30.45,-30.33,0,*7C
1487170843.77,39084,15.25,74888.5,3.11,-30.05,-30.05,0,*78
1487170845.04,39085,15.25,74890.8,3.11,-30.01,-30.17,0,*7E
1487170846.29,39086,15.25,74890.5,3.11,-30.23,-30.17,0,*7D
1487170847.56,39087,15.25,74888.0,3.11,-30.05,-30.05,0,*7B
1487170848.83,39088,15.25,74888.0,3.11,-29.73,-29.89,0,*71
1487170850.08,39089,15.25,74892.3,3.11,-30.17,-30.23,0,*72
1487170851.33,39090,15.25,74892.5,3.11,-30.23,-30.17,0,*7A
1487170852.53,39091,15.25,74894.3,3.09,-30.33,-30.23,0,*74
1487170853.8,39092,15.25,74892.5,3.11,-30.05,-30.17,0,*7C
1487170855.07,39093,15.25,74894.8,3.11,-30.01,-30.05,0,*7A
1487170856.32,39094,15.25,74898.8,3.09,-30.17,-30.05,0,*73
1487170857.54,39095,15.25,74892.8,3.11,-30.33,-30.33,0,*78
1487170858.79,39096,15.25,74894.8,3.11,-30.17,-30.23,0,*7C
1487170860.01,39097,15.25,74898.0,3.09,-30.33,-30.39,0,*79
1487170861.22,39098,15.25,74892.0,3.11,-30.33,-30.23,0,*74
1487170862.45,39099,15.25,74892.5,3.09,-30.23,-30.17,0,*7A
1487170863.72,39100,15.25,74892.8,3.11,-30.01,-30.05,0,*71
1487170865.0,39101,15.25,74894.8,3.11,-29.89,-30.01,0,*7C
1487170866.19,39102,15.25,74896.8,3.09,-30.23,-30.23,0,*7E
1487170867.43,39103,15.25,74890.5,3.09,-30.55,-30.51,0,*7B
1487170868.69,39104,15.25,74894.8,3.11,-30.39,-30.51,0,*7F
1487170869.93,39105,15.25,74892.3,3.09,-30.51,-30.39,0,*77
1487170871.19,39106,15.25,74894.0,3.09,-30.17,-30.17,0,*7A
1487170872.44,39107,15.25,74894.0,3.09,-30.05,-30.17,0,*78
1487170873.69,39108,15.25,74896.8,3.09,-30.17,-30.17,0,*74
1487170874.94,39109,15.25,74898.3,3.09,-30.05,-30.17,0,*76
1487170876.16,39110,15.25,74898.5,3.09,-30.17,-30.23,0,*7A
1487170877.41,39111,15.25,74892.8,3.09,-30.05,-30.17,0,*7F
1487170878.63,39112,15.25,74894.0,3.07,-30.23,-30.23,0,*71
1487170879.83,39113,15.25,74894.8,3.05,-30.23,-30.27,0,*76
1487170881.06,39114,15.25,74892.8,3.07,-30.23,-30.23,0,*77
1487170882.26,39115,15.25,74894.3,3.05,-30.27,-30.23,0,*70
1487170883.47,39116,15.25,74896.8,3.05,-30.27,-30.23,0,*73
1487170884.72,39117,15.25,74894.8,3.07,-30.27,-30.39,0,*7B
1487170885.94,39118,15.25,74898.0,3.05,-30.55,-30.45,0,*78
1487170887.16,39119,15.25,74892.3,3.05,-30.39,-30.27,0,*77
1487170888.36,39120,15.25,74894.5,3.05,-30.23,-30.27,0,*76
1487170889.57,39121,15.25,74896.8,3.05,-30.27,-30.23,0,*77
1487170890.77,39122,15.25,74898.8,3.05,-30.27,-30.23,0,*74
1487170892.02,39123,15.25,74898.0,3.05,-30.05,-30.05,0,*71
1487170893.28,39124,15.25,74892.0,3.05,-29.89,-29.89,0,*76
1487170894.51,39125,15.25,74896.8,3.05,-29.95,-30.05,0,*76
1487170895.76,39126,15.25,74892.3,3.05,-30.05,-30.05,0,*74
1487170896.96,39127,15.25,74898.0,3.05,-30.23,-30.23,0,*75
1487170898.16,39128,15.25,74896.8,3.05,-30.11,-30.23,0,*7B
1487170899.39,39129,15.25,74894.3,3.07,-30.27,-30.23,0,*7D
1487170900.61,39130,15.25,74896.8,3.05,-30.05,-30.11,0,*76
1487170901.84,39131,15.25,74896.0,3.05,-30.05,-30.11,0,*77
1487170903.11,39132,15.25,74894.8,3.07,-30.05,-30.05,0,*73
1487170904.35,39133,15.25,74892.8,3.05,-30.05,-30.05,0,*70
1487170905.55,39134,15.25,74892.8,3.05,-30.11,-30.11,0,*77
1487170906.76,39135,15.25,74898.0,3.05,-30.11,-30.23,0,*77
1487170907.98,39136,15.25,74896.5,3.01,-30.17,-30.23,0,*76
1487170909.23,39137,15.25,74898.8,3.01,-30.01,-30.05,0,*74
1487170910.43,39138,15.25,74902.0,3.05,-29.79,-29.79,0,*7B
1487170911.65,39139,15.25,74898.0,3.07,-29.95,-30.11,0,*7C
1487170912.89,39140,15.25,74898.8,3.05,-29.89,-29.95,0,*79
1487170914.12,39141,15.25,74900.8,3.05,-29.89,-29.95,0,*78
1487170915.37,39142,15.25,74900.0,3.05,-30.05,-30.05,0,*76
1487170916.57,39143,15.25,74900.0,3.05,-30.11,-30.23,0,*76
1487170917.77,39144,15.25,74896.3,3.05,-29.95,-29.95,0,*70
1487170919.03,39145,15.25,74894.0,3.01,-29.89,-30.01,0,*7D
1487170920.28,39146,15.25,74894.0,3.01,-30.01,-30.05,0,*72
1487170921.5,39147,15.25,74898.3,3.01,-30.39,-30.33,0,*7D
1487170922.75,39148,15.25,74896.8,3.01,-30.17,-30.39,0,*74
1487170923.97,39149,15.25,74898.8,3.01,-30.17,-30.23,0,*7E
1487170925.25,39150,15.25,74894.0,2.97,-30.05,-30.17,0,*7C
1487170926.51,39151,15.25,74892.5,3.01,-30.05,-30.17,0,*73
1487170927.7,39152,15.25,74894.0,3.01,-30.23,-30.23,0,*73
1487170928.93,39153,15.25,74892.8,2.97,-30.23,-30.23,0,*7C
1487170930.12,39154,15.25,74896.0,3.01,-30.23,-30.23,0,*75
1487170931.35,39155,15.25,74892.0,2.97,-30.23,-30.33,0,*7B
1487170932.58,39156,15.25,74898.3,2.97,-30.23,-30.33,0,*78
1487170933.83,39157,15.25,74892.3,3.01,-30.01,-30.17,0,*71
1487170935.03,39158,15.25,74894.0,3.01,-30.23,-30.33,0,*78
1487170936.29,39159,15.25,74898.5,2.97,-30.17,-30.33,0,*70
1487170937.52,39160,15.25,74898.5,2.97,-30.23,-30.23,0,*7C
1487170938.77,39161,15.25,74898.8,2.97,-30.05,-30.23,0,*79
1487170940.05,39162,15.25,74898.8,2.97,-30.01,-30.17,0,*79
1487170941.3,39163,15.25,74900.0,2.97,-30.17,-30.23,0,*78
1487170942.53,39164,15.25,74898.8,2.97,-30.23,-30.23,0,*78
1487170943.81,39165,15.25,74900.0,2.97,-30.05,-30.17,0,*7A
1487170945.0,39166,15.25,74896.5,2.95,-30.11,-30.11,0,*78
1487170946.24,39167,15.25,74900.0,2.93,-30.05,-30.23,0,*7B
1487170947.49,39168,15.25,74898.3,2.95,-29.73,-29.73,0,*76
1487170948.68,39169,15.25,74900.3,2.95,-29.95,-29.79,0,*75
1487170949.88,39170,15.25,74898.3,2.95,-29.95,-29.95,0,*7F
1487170951.11,39171,15.25,74896.0,2.95,-29.89,-29.95,0,*73
1487170952.31,39172,15.25,74896.5,2.95,-29.95,-29.79,0,*7F
1487170953.56,39173,15.25,74896.5,2.95,-29.89,-30.05,0,*70
1487170954.78,39174,15.25,74896.3,2.95,-29.79,-29.73,0,*71
1487170956.0,39175,15.25,74898.8,2.95,-29.79,-29.73,0,*70
1487170957.19,39176,15.25,74898.8,2.95,-29.79,-29.79,0,*79
1487170958.39,39177,15.25,74898.3,2.95,-29.79,-29.79,0,*78
1487170959.61,39178,15.25,74894.8,2.95,-29.79,-29.73,0,*7D
1487170960.83,39179,15.25,74892.5,2.95,-29.73,-29.67,0,*73
1487170962.02,39180,15.25,74888.0,2.95,-29.79,-29.79,0,*70
1487170963.25,39181,15.25,74888.5,2.95,-29.89,-29.79,0,*7E
1487170964.53,39182,15.25,74888.8,2.97,-29.89,-29.89,0,*70
1487170965.79,39183,15.25,74888.5,2.97,-29.83,-30.01,0,*73
1487170967.05,39184,15.25,74888.8,2.97,-29.83,-30.01,0,*74
1487170968.34,39185,15.25,74894.5,2.97,-29.89,-30.01,0,*7F
1487170969.54,39186,15.25,74894.5,2.95,-29.95,-29.95,0,*76
1487170970.77,39187,15.25,74888.8,2.95,-29.89,-29.95,0,*7A
1487170971.96,39188,15.25,74892.3,2.95,-29.79,-29.79,0,*78
1487170973.16,39189,15.25,74890.0,2.95,-30.11,-30.23,0,*78
1487170974.38,39190,15.25,74892.3,2.93,-30.27,-30.27,0,*77
1487170975.6,39191,15.25,74894.3,2.93,-30.11,-30.23,0,*77
1487170976.84,39192,15.25,74892.5,2.93,-30.05,-30.11,0,*70
1487170978.06,39193,15.25,74894.3,2.95,-30.11,-30.05,0,*77
1487170979.28,39194,15.25,74894.0,2.93,-30.23,-30.23,0,*73
1487170980.48,39195,15.25,74896.0,2.95,-30.11,-30.23,0,*75
1487170981.73,39196,15.25,74894.3,2.93,-29.95,-30.05,0,*70
1487170982.97,39197,15.25,74892.0,2.95,-29.73,-29.73,0,*76
1487170984.19,39198,15.25,74894.3,2.95,-29.79,-29.73,0,*73
1487170985.41,39199,15.25,74894.0,2.95,-29.73,-29.67,0,*7D
1487170986.64,39200,15.25,74892.5,2.95,-29.73,-29.67,0,*7E
1487170987.88,39201,15.25,74894.5,2.93,-29.73,-29.67,0,*79
1487170989.13,39202,15.25,74892.8,2.93,-29.95,-30.05,0,*7E
1487170990.36,39203,15.25,74892.3,2.93,-29.95,-29.95,0,*7E
1487170991.61,39204,15.25,74894.5,2.93,-29.89,-29.79,0,*76
1487170992.89,39205,15.25,74892.5,2.97,-29.89,-30.17,0,*73
1487170994.09,39206,15.25,74896.5,2.95,-30.11,-30.11,0,*7D
1487170995.31,39207,15.31,74898.5,2.95,-30.27,-30.39,0,*73
1487170996.56,39208,15.25,74892.8,2.93,-29.89,-29.95,0,*78
1487170997.81,39209,15.25,74894.0,2.93,-29.79,-29.73,0,*7E
1487170999.02,39210,15.25,74896.0,2.93,-29.79,-29.79,0,*7C
1487171000.3,39211,15.25,74896.5,2.93,-29.89,-30.05,0,*71
1487171001.53,39212,15.25,74898.3,2.95,-29.89,-29.95,0,*75
1487171002.75,39213,15.25,74898.5,2.95,-29.89,-29.79,0,*76
1487171004.0,39214,15.25,74898.0,2.93,-29.95,-30.05,0,*79
1487171005.22,39215,15.25,74896.0,2.93,-29.79,-29.95,0,*7B
1487171006.42,39216,15.25,74898.0,2.95,-29.95,-29.95,0,*7C
1487171007.64,39217,15.25,74896.3,2.93,-29.79,-29.79,0,*7B
1487171008.89,39218,15.25,74894.5,2.93,-29.89,-29.95,0,*79
1487171010.11,39219,15.25,74896.0,2.93,-30.11,-30.23,0,*74
1487171011.36,39220,15.25,74894.5,2.93,-29.95,-30.05,0,*7E
1487171012.6,39221,15.25,74896.8,2.93,-30.45,-30.39,0,*75
1487171013.82,39222,15.25,74898.0,2.93,-30.23,-30.27,0,*79
1487171015.04,39223,15.25,74896.5,2.95,-30.05,-30.23,0,*7E
1487171016.28,39224,15.25,74892.8,2.93,-29.89,-29.79,0,*74
1487171017.51,39225,15.25,74896.5,2.93,-29.95,-29.95,0,*7A
1487171018.75,39226,15.25,74892.0,2.93,-30.05,-30.11,0,*7C
1487171019.99,39227,15.25,74892.3,2.93,-30.05,-30.11,0,*7D
1487171021.24,39228,15.25,74894.3,2.93,-29.95,-30.05,0,*76
1487171022.48,39229,15.25,74894.3,2.93,-29.79,-29.73,0,*7C
1487171023.73,39230,15.25,74892.3,2.93,-30.05,-30.23,0,*7A
1487171024.93,39231,15.25,74894.5,2.91,-30.33,-30.45,0,*7C
1487171026.18,39232,15.25,74892.5,2.91,-30.01,-30.01,0,*7E
1487171027.43,39233,15.25,74888.3,2.91,-30.01,-30.01,0,*7F
1487171028.64,39234,15.25,74890.5,2.91,-30.27,-30.33,0,*7D
1487171029.84,39235,15.25,74886.0,2.91,-29.95,-30.11,0,*7D
1487171031.06,39236,15.25,74888.5,2.93,-29.95,-29.79,0,*7A
1487171032.31,39237,15.25,74890.8,2.89,-30.05,-30.23,0,*76
1487171033.54,39238,15.25,74894.5,2.91,-30.17,-30.27,0,*77
1487171034.77,39239,15.25,74894.0,2.91,-29.95,-30.01,0,*70
1487171036.03,39240,15.31,74894.3,2.91,-30.01,-30.17,0,*7C
1487171037.26,39241,15.25,74894.5,2.91,-29.95,-30.01,0,*7F
1487171038.51,39242,15.25,74894.8,2.89,-30.05,-30.23,0,*74
1487171039.73,39243,15.25,74892.5,2.91,-30.01,-30.11,0,*79
1487171040.98,39244,15.25,74890.8,2.91,-30.01,-30.01,0,*7F
1487171042.19,39245,15.25,74892.0,2.91,-30.11,-30.27,0,*7B
1487171043.42,39246,15.25,74892.0,2.89,-30.33,-30.33,0,*74
1487171044.67,39247,15.31,74894.0,2.89,-30.01,-30.23,0,*75
1487171045.92,39248,15.25,74892.3,2.89,-30.55,-30.67,0,*7B
1487171047.2,39249,15.25,74894.5,2.89,-30.51,-30.51,0,*7B
1487171048.45,39250,15.25,74892.3,2.89,-30.23,-30.17,0,*74
1487171049.7,39251,15.25,74894.0,2.89,-30.33,-30.39,0,*78
1487171050.96,39252,15.25,74894.8,2.89,-30.17,-30.33,0,*77
1487171052.24,39253,15.25,74894.5,2.89,-30.01,-30.17,0,*77
1487171053.49,39254,15.31,74896.8,2.89,-30.05,-30.23,0,*73
1487171054.71,39255,15.31,74896.5,2.87,-30.05,-30.23,0,*7C
1487171055.91,39256,15.25,74896.8,2.87,-30.23,-30.23,0,*7B
1487171057.17,39257,15.31,74900.5,2.87,-29.89,-30.05,0,*76
1487171058.42,39258,15.25,74898.0,2.87,-29.89,-30.05,0,*79
1487171059.65,39259,15.25,74898.0,2.85,-30.23,-30.27,0,*72
1487171060.9,39260,15.25,74898.8,2.87,-30.05,-30.17,0,*7D
1487171062.15,39261,15.31,74896.3,2.87,-30.01,-29.89,0,*77
1487171063.44,39262,15.25,74896.0,2.89,-29.89,-29.89,0,*72
1487171064.69,39263,15.25,74896.5,2.87,-30.05,-30.17,0,*7E
1487171065.94,39264,15.31,74892.8,2.87,-30.01,-30.05,0,*7E
1487171067.22,39265,15.25,74894.5,2.89,-30.01,-29.89,0,*7D
1487171068.51,39266,15.25,74892.0,2.89,-29.89,-29.89,0,*76
1487171069.74,39267,15.25,74890.8,2.87,-30.17,-30.23,0,*7E
1487171071.02,39268,15.25,74888.0,2.89,-30.17,-30.17,0,*78
1487171072.3,39269,15.25,74888.0,2.89,-30.01,-30.17,0,*7E
1487171073.59,39270,15.25,74888.5,2.85,-30.77,-30.89,0,*7C
1487171074.79,39271,15.25,74886.5,2.87,-30.33,-30.23,0,*7F
1487171076.05,39272,15.25,74886.3,2.87,-29.89,-29.89,0,*7D
1487171077.3,39273,15.25,74888.8,2.85,-30.11,-30.39,0,*74
1487171078.53,39274,15.25,74890.8,2.87,-30.17,-30.23,0,*7C
1487171079.75,39275,15.25,74888.0,2.85,-30.45,-30.45,0,*78
1487171080.98,39276,15.25,74884.0,2.87,-30.17,-30.23,0,*7E
1487171082.21,39277,15.25,74886.0,2.85,-30.27,-30.27,0,*7A
1487171083.46,39278,15.31,74886.3,2.85,-30.27,-30.39,0,*7A
1487171084.69,39279,15.25,74886.3,2.85,-30.23,-30.27,0,*70
1487171085.91,39280,15.25,74884.0,2.87,-30.39,-30.45,0,*7B
1487171087.16,39281,15.25,74886.0,2.85,-30.27,-30.39,0,*7C
1487171088.38,39282,15.25,74886.0,2.85,-30.45,-30.45,0,*70
1487171089.63,39283,15.25,74892.5,2.85,-30.39,-30.45,0,*7A
1487171090.92,39284,15.25,74894.8,2.85,-30.73,-30.73,0,*76
1487171092.2,39285,15.25,74892.5,2.85,-30.89,-30.77,0,*76
1487171093.45,39286,15.25,74892.3,2.83,-30.55,-30.55,0,*72
1487171094.73,39287,15.31,74892.8,2.81,-30.61,-30.61,0,*71
1487171095.97,39288,15.25,74894.5,2.81,-30.27,-30.27,0,*7E
1487171097.17,39289,15.25,74898.5,2.83,-30.23,-30.23,0,*7D
1487171098.36,39290,15.25,74894.3,2.83,-30.23,-30.27,0,*71
1487171099.57,39291,15.25,74894.0,2.83,-30.27,-30.33,0,*71
1487171100.8,39292,15.25,74888.0,2.83,-30.27,-30.39,0,*78
1487171102.04,39293,15.31,74894.0,2.81,-30.27,-30.27,0,*74
1487171103.32,39294,15.31,74888.3,2.81,-30.01,-30.01,0,*73
1487171104.55,39295,15.25,74890.3,2.81,-29.95,-29.95,0,*72
1487171105.75,39296,15.31,74888.0,2.83,-29.95,-30.11,0,*77
1487171107.01,39297,15.25,74888.8,2.81,-30.11,-30.17,0,*76
1487171108.27,39298,15.25,74888.0,2.81,-30.17,-30.27,0,*7C
1487171109.53,39299,15.25,74892.3,2.83,-30.95,-30.89,0,*71
1487171110.79,39300,15.31,74896.3,2.81,-30.61,-30.67,0,*79
1487171112.08,39301,15.31,74894.8,2.81,-30.61,-30.61,0,*7E
1487171113.36,39302,15.25,74890.8,2.81,-30.95,-30.95,0,*7D
1487171114.62,39303,15.25,74888.3,2.81,-30.33,-30.51,0,*78
1487171115.85,39304,15.25,74888.8,2.79,-30.11,-30.17,0,*7A
1487171117.1,39305,15.25,74894.0,2.79,-30.01,-30.01,0,*7D
1487171118.33,39306,15.25,74894.0,2.79,-30.11,-30.01,0,*7F
1487171119.57,39307,15.25,74896.3,2.79,-29.95,-30.01,0,*7A
1487171120.8,39308,15.25,74898.3,2.79,-29.95,-29.89,0,*7D
1487171122.09,39309,15.31,74900.5,2.81,-29.89,-29.89,0,*76
1487171123.35,39310,15.25,74894.8,2.81,-30.33,-30.51,0,*7A
1487171124.58,39311,15.31,74894.3,2.79,-30.11,-30.17,0,*7E
1487171125.84,39312,15.31,74896.0,2.79,-30.01,-30.01,0,*7B
1487171127.07,39313,15.25,74892.3,2.79,-29.95,-30.01,0,*7F
1487171128.3,39314,15.25,74894.0,2.75,-30.01,-29.95,0,*74
1487171129.56,39315,15.25,74892.5,2.81,-29.89,-29.79,0,*74
1487171130.79,39316,15.25,74892.8,2.79,-29.89,-29.95,0,*72
1487171132.05,39317,15.31,74892.5,2.79,-29.89,-29.89,0,*7E
1487171133.31,39318,15.25,74894.5,2.81,-30.01,-29.95,0,*73
1487171134.56,39319,15.31,74892.3,2.79,-30.01,-30.01,0,*70
1487171135.79,39320,15.25,74892.5,2.79,-30.11,-30.17,0,*7C
1487171137.0,39321,15.31,74892.8,2.79,-30.11,-30.27,0,*7E
1487171138.23,39322,15.31,74892.5,2.79,-30.17,-30.33,0,*7E
1487171139.47,39323,15.31,74896.0,2.75,-30.17,-30.33,0,*73
1487171140.7,39324,15.31,74896.5,2.79,-30.11,-30.17,0,*78
1487171141.93,39325,15.25,74894.3,2.79,-30.33,-30.61,0,*78
1487171143.17,39326,15.25,74892.8,2.79,-30.67,-30.61,0,*7A
1487171144.4,39327,15.31,74888.8,2.75,-30.33,-30.39,0,*7B
1487171145.63,39328,15.31,74888.5,2.75,-30.33,-30.51,0,*7A
1487171146.83,39329,15.31,74890.8,2.75,-30.23,-30.23,0,*7F
1487171148.06,39330,15.31,74892.3,2.79,-30.17,-30.33,0,*7D
1487171149.27,39331,15.25,74888.0,2.79,-30.11,-30.27,0,*7F
1487171150.5,39332,15.31,74894.8,2.75,-30.17,-30.23,0,*72
1487171151.76,39333,15.25,74892.0,2.79,-30.01,-30.17,0,*7F
1487171152.98,39334,15.31,74896.5,2.79,-30.01,-30.27,0,*7B
1487171154.23,39335,15.31,74898.3,2.79,-30.05,-30.01,0,*7A
1487171155.47,39336,15.25,74892.3,2.75,-30.17,-30.23,0,*76
1487171156.71,39337,15.31,74894.5,2.75,-30.39,-30.39,0,*70
1487171157.97,39338,15.31,74892.3,2.75,-30.17,-30.05,0,*7C
1487171159.2,39339,15.31,74888.5,2.79,-29.95,-29.89,0,*7F
1487171160.43,39340,15.31,74894.3,2.75,-30.01,-29.95,0,*75
1487171161.68,39341,15.31,74892.5,2.75,-30.05,-30.01,0,*75
1487171162.91,39342,15.31,74892.5,2.75,-30.23,-30.39,0,*79
1487171164.16,39343,15.25,74888.8,2.75,-30.39,-30.51,0,*7D
1487171165.38,39344,15.25,74886.8,2.75,-30.33,-30.39,0,*7E
1487171166.61,39345,15.31,74888.8,2.75,-30.39,-30.33,0,*7F
1487171167.84,39346,15.31,74890.0,2.73,-30.23,-30.27,0,*74
1487171169.07,39347,15.31,74890.3,2.73,-30.11,-30.11,0,*71
1487171170.3,39348,15.31,74888.8,2.73,-30.23,-30.27,0,*7A
1487171171.52,39349,15.31,74890.5,2.73,-30.11,-30.11,0,*7F
1487171172.78,39350,15.31,74888.0,2.73,-30.11,-30.05,0,*72
1487171174.04,39351,15.31,74890.5,2.73,-29.89,-29.83,0,*7C
1487171175.29,39352,15.25,74888.3,2.73,-30.05,-30.11,0,*70
1487171176.5,39353,15.25,74890.0,2.75,-30.23,-30.33,0,*73
1487171177.75,39354,15.31,74892.3,2.75,-30.01,-30.01,0,*75
1487171178.96,39355,15.31,74892.5,2.75,-30.23,-30.33,0,*75
1487171180.19,39356,15.31,74890.8,2.75,-30.33,-30.55,0,*77
1487171181.44,39357,15.31,74892.3,2.73,-30.23,-30.39,0,*7B
1487171182.73,39358,15.25,74888.8,2.73,-30.73,-30.77,0,*7B
1487171184.02,39359,15.25,74888.3,2.73,-30.55,-30.77,0,*7E
1487171185.27,39360,15.31,74894.3,2.71,-30.55,-30.61,0,*71
1487171186.47,39361,15.31,74890.5,2.71,-30.27,-30.45,0,*73
1487171187.7,39362,15.31,74892.0,2.73,-30.23,-30.27,0,*72
1487171188.93,39363,15.31,74894.3,2.73,-30.23,-30.27,0,*73
1487171190.13,39364,15.31,74896.3,2.71,-30.23,-30.11,0,*73
1487171191.4,39365,15.31,74894.5,2.73,-30.05,-30.05,0,*71
1487171192.63,39366,15.31,74898.0,2.73,-30.23,-30.11,0,*73
1487171193.89,39367,15.31,74892.5,2.73,-30.27,-30.39,0,*7C
1487171195.11,39368,15.31,74894.5,2.71,-30.05,-30.11,0,*7B
1487171196.36,39369,15.31,74894.8,2.75,-30.05,-30.01,0,*7F
1487171197.59,39370,15.25,74892.8,2.73,-30.23,-30.27,0,*71
1487171198.84,39371,15.25,74894.5,2.73,-30.05,-30.11,0,*71
1487171200.06,39372,15.25,74890.3,2.71,-30.11,-30.05,0,*70
1487171201.35,39373,15.31,74892.8,2.73,-30.05,-29.89,0,*7A
1487171202.6,39374,15.31,74894.8,2.71,-30.05,-30.01,0,*77
1487171203.79,39375,15.31,74894.5,2.71,-30.11,-30.11,0,*72
1487171205.0,39376,15.31,74896.0,2.71,-30.27,-30.45,0,*75
1487171206.23,39377,15.31,74894.3,2.71,-30.27,-30.39,0,*7F
1487171207.42,39378,15.31,74892.3,2.71,-30.23,-30.11,0,*7E
1487171208.67,39379,15.31,74894.0,2.71,-30.01,-29.73,0,*73
1487171209.92,39380,15.31,74892.8,2.71,-30.01,-30.01,0,*78
1487171211.12,39381,15.31,74892.5,2.71,-30.11,-30.11,0,*79
1487171212.38,39382,15.31,74892.3,2.73,-30.11,-30.01,0,*79
1487171213.62,39383,15.31,74894.8,2.71,-30.05,-30.05,0,*7B
1487171214.85,39384,15.31,74898.5,2.71,-30.05,-30.11,0,*79
1487171216.09,39385,15.31,74896.3,2.71,-30.05,-30.05,0,*7D
1487171217.34,39386,15.31,74898.3,2.71,-30.55,-30.55,0,*7E
1487171218.61,39387,15.31,74894.8,2.69,-30.51,-30.51,0,*76
1487171219.84,39388,15.31,74894.8,2.69,-30.33,-30.45,0,*78
1487171221.07,39389,15.31,74896.0,2.69,-30.11,-30.11,0,*78
1487171222.32,39390,15.31,74894.3,2.69,-30.17,-30.11,0,*76
1487171223.54,39391,15.31,74892.3,2.69,-30.11,-30.11,0,*71
1487171224.79,39392,15.31,74894.8,2.69,-29.89,-29.79,0,*7D
1487171226.03,39393,15.31,74894.8,2.69,-29.95,-29.95,0,*73
1487171227.25,39394,15.31,74894.3,2.69,-30.11,-29.95,0,*70
1487171228.51,39395,15.25,74890.8,2.69,-30.17,-30.11,0,*73
1487171229.76,39396,15.31,74896.5,2.69,-29.95,-30.05,0,*77
1487171231.01,39397,15.31,74896.3,2.67,-30.05,-29.95,0,*78
1487171232.23,39398,15.31,74894.3,2.67,-30.11,-30.11,0,*76
1487171233.48,39399,15.31,74896.8,2.69,-30.11,-30.17,0,*7F
1487171234.71,39400,15.31,74898.3,2.69,-30.11,-30.11,0,*7E
1487171235.96,39401,15.31,74898.3,2.69,-30.11,-30.05,0,*7A
1487171237.21,39402,15.31,74894.8,2.69,-30.11,-30.05,0,*79
1487171238.5,39403,15.31,74896.3,2.69,-30.17,-30.17,0,*7D
1487171239.73,39404,15.31,74892.0,2.69,-30.27,-30.33,0,*7F
1487171240.98,39405,15.31,74896.0,2.69,-30.11,-30.05,0,*7E
1487171242.21,39406,15.31,74898.3,2.69,-30.11,-29.95,0,*7C
1487171243.46,39407,15.31,74894.0,2.67,-30.11,-30.05,0,*72
1487171244.7,39408,15.31,74894.5,2.67,-30.05,-29.95,0,*79
1487171245.94,39409,15.31,74894.3,2.67,-30.05,-30.11,0,*7C
1487171247.19,39410,15.31,74892.5,2.67,-30.11,-30.05,0,*74
1487171248.41,39411,15.31,74896.8,2.67,-30.11,-30.11,0,*70
1487171249.66,39412,15.31,74894.3,2.69,-30.11,-30.05,0,*78
1487171250.91,39413,15.31,74894.5,2.67,-30.11,-30.05,0,*77
1487171252.13,39414,15.31,74896.5,2.67,-30.11,-30.11,0,*75
1487171253.38,39415,15.31,74896.5,2.69,-30.11,-30.05,0,*7F
1487171254.66,39416,15.31,74892.8,2.67,-30.17,-30.17,0,*77
1487171255.91,39417,15.31,74894.3,2.67,-30.17,-30.11,0,*70
1487171257.16,39418,15.31,74894.5,2.67,-30.11,-30.17,0,*7F
1487171258.4,39419,15.31,74892.5,2.67,-30.27,-30.33,0,*7D
1487171259.64,39420,15.31,74896.0,2.67,-30.17,-30.11,0,*74
1487171260.92,39421,15.31,74896.5,2.67,-30.05,-29.89,0,*7F
1487171262.19,39422,15.31,74892.3,2.69,-30.05,-30.05,0,*7E
1487171263.41,39423,15.31,74894.0,2.67,-30.11,-30.11,0,*71
1487171264.68,39424,15.31,74898.0,2.67,-30.05,-30.05,0,*76
1487171265.95,39425,15.31,74892.8,2.67,-30.05,-30.05,0,*77
1487171267.21,39426,15.31,74896.5,2.65,-30.17,-30.01,0,*71
1487171268.4,39427,15.31,74892.5,2.65,-30.11,-30.11,0,*77
1487171269.6,39428,15.25,74890.3,2.65,-30.23,-30.23,0,*78
1487171270.85,39429,15.31,74896.8,2.63,-30.23,-30.17,0,*78
1487171272.07,39430,15.31,74894.3,2.65,-30.17,-30.11,0,*77
1487171273.33,39431,15.31,74896.5,2.65,-30.17,-30.17,0,*70
1487171274.55,39432,15.31,74898.8,2.67,-30.11,-30.11,0,*71
1487171275.78,39433,15.25,74894.5,2.65,-30.23,-30.17,0,*75
1487171277.01,39434,15.31,74896.0,2.65,-30.01,-29.83,0,*77
1487171278.21,39435,15.31,74894.3,2.65,-29.95,-29.95,0,*74
1487171279.42,39436,15.31,74898.8,2.65,-29.95,-29.83,0,*70
1487171280.65,39437,15.31,74898.3,2.65,-30.11,-30.01,0,*77
1487171281.87,39438,15.31,74898.0,2.63,-30.27,-30.23,0,*7B
1487171283.1,39439,15.31,74896.8,2.65,-30.11,-30.01,0,*79
1487171284.33,39440,15.31,74894.0,2.65,-30.11,-30.01,0,*77
1487171285.55,39441,15.31,74894.3,2.65,-30.11,-30.01,0,*76
1487171286.76,39442,15.31,74894.0,2.65,-29.83,-29.83,0,*74
1487171288.0,39443,15.31,74896.3,2.63,-30.01,-29.95,0,*76
1487171289.28,39444,15.31,74896.8,2.67,-30.05,-29.89,0,*7C
1487171290.53,39445,15.31,74898.5,2.67,-29.89,-29.79,0,*7E
1487171291.73,39446,15.31,74896.5,2.65,-29.95,-29.95,0,*70
1487171292.96,39447,15.31,74896.5,2.65,-30.01,-29.95,0,*74
1487171294.22,39448,15.31,74896.3,2.63,-30.05,-30.05,0,*78
1487171295.43,39449,15.31,74898.3,2.65,-29.83,-29.83,0,*7F
1487171296.64,39450,15.31,74898.8,2.65,-29.95,-29.83,0,*70
1487171297.87,39451,15.31,74896.5,2.65,-30.11,-30.01,0,*77
1487171299.07,39452,15.25,74894.3,2.65,-29.95,-29.95,0,*75
1487171300.34,39453,15.31,74896.0,2.63,-30.01,-29.89,0,*7A
1487171301.57,39454,15.31,74894.0,2.65,-30.11,-30.01,0,*72
1487171302.8,39455,15.31,74894.8,2.65,-30.11,-30.01,0,*73